COSMOS 1812

Last updated on Wed Jul 02 2025 00:02:13 GMT+0000 (Coordinated Universal Time)

1 17295U 87003A 25182.51062660 .00022541 00000+0 32922-3 0 9990 2 17295 82.4978 106.3974 0002172 49.3696 310.7747 15.55500972105007
UTC large
Height (km)
Speed (km/s)
/
Latitude / Longitude
Inclination (degrees)
Orbital Period (minutes)
Azimuth
Elevation
Range (km)
Doppler Factor

Next 0 passes for location: London (51.5072 / 0.1276)

Sorry there are no passes over London.